EW2590 Weather Reports


time (UTC)temp
C
wind
direction
speed
KPH
gust
KPH
rain 1hr
cm
rain 24hr
cm
rain mn
cm
humidity
%
barometer
mb
20260506192821 12 290 6.4 19.3 0.03 1.42 0.99 89
20260506192323 12 285 9.7 19.3 0.03 1.42 0.99 88
20260506191823 13 296 12.9 22.5 0.00 1.40 0.97 86
20260506191321 15 239 3.2 9.7 0.00 1.40 0.97 90
20260506190822 15 264 1.6 6.4 0.00 1.40 0.97 89
20260506190322 15 276 0.0 11.3 0.00 1.40 0.97 89
20260506185823 15 210 0.0 11.3 0.00 1.40 0.97 89
20260506185322 15 122 1.6 14.5 0.00 1.40 0.97 88
20260506184843 15 210 3.2 20.9 0.00 1.40 0.97 88
20260506184321 15 200 4.8 12.9 0.00 1.40 0.97 88
20260506183821 15 138 4.8 19.3 0.00 1.40 0.97 88
20260506183321 15 148 1.6 19.3 0.00 1.40 0.97 88
20260506182822 15 154 9.7 19.3 0.00 1.40 0.97 88
20260506182320 15 139 4.8 16.1 0.00 1.40 0.97 89
20260506181842 15 107 4.8 19.3 0.00 1.40 0.97 90
20260506181320 15 108 6.4 17.7 0.00 1.40 0.97 90
20260506180821 15 122 4.8 17.7 0.00 1.40 0.97 91
20260506180322 15 128 1.6 9.7 0.03 1.40 0.97 92
20260506175822 15 220 3.2 9.7 0.03 1.40 0.97 92
20260506175321 15 35 0.0 0.0 0.03 1.40 0.97 93
20260506174820 15 156 0.0 0.0 0.03 1.40 0.97 93
20260506174320 15 154 0.0 0.0 0.03 1.40 0.97 92
20260506173820 15 135 0.0 6.4 0.03 1.40 0.97 93
20260506173319 15 217 1.6 9.7 0.03 1.40 0.97 92
20260506172819 15 149 1.6 6.4 0.03 1.40 0.97 92
20260506172319 15 259 1.6 8.0 0.05 1.40 0.97 92
20260506171819 15 224 3.2 8.0 0.05 1.40 0.97 92
20260506171318 15 256 0.0 8.0 0.05 1.40 0.97 93
20260506170819 15 256 3.2 8.0 0.08 1.40 0.97 92
20260506170319 15 203 1.6 8.0 0.08 1.37 0.94 93
20260506165819 15 192 1.6 8.0 0.10 1.37 0.94 92
20260506165318 15 199 0.0 8.0 0.10 1.37 0.94 93
20260506164819 14 193 0.0 9.7 0.13 1.37 0.94 93
20260506164321 14 150 0.0 8.0 0.15 1.37 0.94 93
20260506163821 14 199 1.6 8.0 0.15 1.37 0.94 93
20260506163341 14 244 0.0 8.0 0.18 1.37 0.94 92
20260506162819 14 243 0.0 8.0 0.20 1.37 0.94 92
20260506162320 14 274 1.6 4.8 0.18 1.35 0.91 92
20260506161819 14 258 0.0 6.4 0.18 1.35 0.91 92
20260506161319 14 249 1.6 6.4 0.18 1.35 0.91 92
20260506160820 14 235 1.6 3.2 0.15 1.32 0.89 92
20260506160319 14 235 0.0 6.4 0.13 1.30 0.86 92
20260506155819 14 233 1.6 6.4 0.10 1.27 0.84 92
20260506155319 14 252 0.0 4.8 0.10 1.27 0.84 92
20260506154818 14 241 0.0 6.4 0.10 1.24 0.81 92
20260506153817 14 121 1.6 19.3 0.08 1.22 0.79 92
20260506153316 14 181 3.2 9.7 0.05 1.19 0.76 93
20260506152836 14 212 3.2 9.7 0.05 1.17 0.74 93
20260506152354 14 206 0.0 8.0 0.08 1.17 0.74 93
20260506151832 14 205 1.6 8.0 0.08 1.17 0.74 93
20260506151333 14 4 0.0 0.0 0.10 1.17 0.74 93
20260506150832 14 4 0.0 0.0 0.13 1.17 0.74 93
20260506150332 14 25 0.0 0.0 0.15 1.17 0.74 94
20260506145832 13 27 0.0 0.0 0.15 1.17 0.74 94
20260506145332 13 305 0.0 0.0 0.18 1.17 0.74 94
20260506144851 13 304 0.0 0.0 0.18 1.14 0.71 94
20260506144329 13 312 0.0 0.0 0.20 1.14 0.71 93
20260506143830 13 312 0.0 0.0 0.25 1.14 0.71 93
20260506143329 13 304 0.0 0.0 0.28 1.14 0.71 93
20260506142827 13 273 0.0 0.0 0.30 1.12 0.69 93
20260506142328 13 273 0.0 0.0 0.30 1.09 0.66 93
20260506141844 13 272 0.0 0.0 0.33 1.09 0.66 93
20260506141324 13 273 0.0 0.0 0.30 1.07 0.64 93
20260506140823 13 272 0.0 0.0 0.30 1.04 0.61 92
20260506140320 13 272 0.0 0.0 0.28 1.02 0.58 92
20260506135820 13 272 0.0 0.0 0.28 1.02 0.58 92
20260506135341 13 272 0.0 0.0 0.25 0.99 0.56 92
20260506134819 13 273 0.0 0.0 0.23 0.97 0.53 92
20260506134319 13 192 0.0 4.8 0.18 0.91 0.48 92
20260506133820 13 193 0.0 9.7 0.15 0.89 0.46 92
20260506133320 13 185 3.2 9.7 0.15 0.86 0.43 92
20260506132818 13 210 1.6 19.3 0.10 0.84 0.38 92
20260506132318 13 107 8.0 19.3 0.08 0.81 0.36 93
20260506131819 13 130 4.8 14.5 0.05 0.79 0.33 93
20260506131320 13 125 4.8 12.9 0.05 0.79 0.33 94
20260506130819 13 155 3.2 9.7 0.03 0.76 0.30 94
20260506130340 12 130 1.6 9.7 0.03 0.76 0.30 95
20260506125819 12 87 0.0 0.0 0.03 0.76 0.30 95
20260506125318 12 341 0.0 0.0 0.03 0.76 0.30 95
20260506124818 12 341 0.0 0.0 0.05 0.76 0.30 95
20260506124318 12 316 0.0 0.0 0.05 0.76 0.30 95
20260506123819 12 316 0.0 0.0 0.05 0.76 0.30 95
20260506123318 12 316 0.0 0.0 0.05 0.74 0.28 95
20260506122818 12 316 0.0 0.0 0.05 0.74 0.28 95
20260506122317 12 33 0.0 0.0 0.08 0.74 0.28 95
20260506121818 12 35 0.0 0.0 0.08 0.74 0.28 95
20260506121319 12 39 0.0 0.0 0.10 0.74 0.28 95
20260506120818 12 46 0.0 0.0 0.10 0.74 0.28 95
20260506120318 11 48 0.0 0.0 0.13 0.74 0.28 95
20260506115836 11 48 0.0 0.0 0.13 0.74 0.28 95
20260506115315 11 48 0.0 0.0 0.15 0.74 0.28 95
20260506114816 11 48 0.0 0.0 0.15 0.71 0.25 95
20260506114315 11 56 0.0 0.0 0.15 0.71 0.25 94
20260506113835 11 60 0.0 0.0 0.18 0.71 0.25 94
20260506113315 11 60 0.0 0.0 0.15 0.69 0.23 95
20260506112815 11 60 0.0 0.0 0.15 0.69 0.23 95
20260506112314 11 60 0.0 0.0 0.13 0.66 0.20 94
20260506111832 11 59 0.0 0.0 0.15 0.66 0.20 94
20260506111330 11 60 0.0 0.0 0.13 0.64 0.18 94
20260506110849 11 60 0.0 0.0 0.13 0.64 0.18 94
20260506110327 11 60 0.0 0.0 0.13 0.61 0.15 94
20260506105827 11 60 0.0 0.0 0.10 0.58 0.13 94
20260506105326 11 60 0.0 0.0 0.10 0.58 0.13 94
20260506104826 11 60 0.0 0.0 0.08 0.56 0.10 94
20260506104325 11 60 0.0 0.0 0.08 0.56 0.10 94
20260506103826 11 60 0.0 0.0 0.08 0.53 0.08 94
20260506103323 11 60 0.0 0.0 0.08 0.53 0.08 93
20260506102823 11 60 0.0 0.0 0.08 0.53 0.08 93
20260506102344 11 60 0.0 0.0 0.08 0.53 0.08 93
20260506101824 11 60 0.0 0.0 0.05 0.51 0.05 93
20260506101324 11 60 0.0 0.0 0.05 0.51 0.05 93
20260506100823 11 60 0.0 0.0 0.05 0.51 0.05 93
20260506100324 11 60 0.0 0.0 0.03 0.48 0.03 93
20260506095823 11 60 0.0 0.0 0.03 0.48 0.03 93
20260506095323 11 60 0.0 0.0 0.03 0.48 0.03 93
20260506094822 11 60 0.0 0.0 0.03 0.48 0.03 93
20260506094322 11 60 0.0 0.0 0.03 0.48 0.03 94
20260506093821 11 60 0.0 0.0 0.00 0.46 0.00 93
20260506093321 11 56 0.0 0.0 0.00 0.46 0.00 93
20260506092822 11 56 0.0 0.0 0.00 0.58 0.00 93
20260506092322 11 56 0.0 0.0 0.00 0.58 0.00 93
20260506091822 11 56 0.0 0.0 0.00 0.58 0.00 93
20260506091341 11 56 0.0 0.0 0.00 0.58 0.00 93
20260506090820 11 56 0.0 0.0 0.00 0.58 0.00 93
20260506090320 11 56 0.0 0.0 0.00 0.58 0.00 93
20260506085819 11 56 0.0 0.0 0.00 0.58 0.00 93
20260506085320 11 56 0.0 0.0 0.00 0.58 0.00 93
20260506084820 11 56 0.0 0.0 0.00 0.58 0.00 93
20260506084318 11 56 0.0 0.0 0.00 0.58 0.00 93
20260506083818 11 56 0.0 0.0 0.00 0.58 0.00 93
20260506083340 11 56 0.0 0.0 0.00 0.58 0.00 93
20260506082839 11 56 0.0 0.0 0.00 0.66 0.00 93
20260506082315 11 56 0.0 0.0 0.00 0.66 0.00 93
20260506081829 11 56 0.0 0.0 0.00 0.66 0.00 93
20260506081328 11 56 0.0 0.0 0.00 0.66 0.00 93
20260506080828 11 56 0.0 0.0 0.00 0.66 0.00 93
20260506080328 11 56 0.0 0.0 0.00 0.66 0.00 92
20260506073328 11 4 0.0 0.0 0.00 0.66 0.00 92
20260506072829 11 4 0.0 0.0 0.00 0.66 0.00 92
20260506072327 11 4 0.0 0.0 0.00 0.66 0.00 92
20260506071825 11 4 0.0 0.0 0.00 0.66 0.00 92
20260506071347 11 4 0.0 0.0 0.00 0.66 0.00 92
20260506070826 11 4 0.0 0.0 0.00 0.66 0.00 92
20260506070346 11 4 0.0 0.0 0.00 0.66 0.00 92
20260506062321 11 4 0.0 0.0 0.00 0.66 0.00 92
20260506061821 11 4 0.0 0.0 0.00 0.66 0.00 91
20260506061321 11 4 0.0 0.0 0.00 0.66 0.00 91
20260506060821 11 4 0.0 0.0 0.00 0.66 0.00 91
20260506060343 11 4 0.0 0.0 0.00 0.66 0.00 91
20260506051319 12 4 0.0 0.0 0.00 0.66 0.66 90
20260506050821 12 4 0.0 0.0 0.00 0.66 0.66 89
20260506050322 12 4 0.0 0.0 0.00 0.66 0.66 89
20260506044820 12 4 0.0 0.0 0.00 0.66 0.66 88
20260506044320 12 4 0.0 0.0 0.00 0.66 0.66 87
20260506043840 12 4 0.0 0.0 0.00 0.66 0.66 87
20260506043319 12 4 0.0 0.0 0.00 0.66 0.66 87
20260506042838 12 4 0.0 0.0 0.00 0.66 0.66 86
20260506042317 12 4 0.0 0.0 0.00 0.66 0.66 86
20260506041818 12 4 0.0 0.0 0.00 0.66 0.66 85
20260506041317 12 4 0.0 0.0 0.00 0.66 0.66 85
20260506040836 12 4 0.0 0.0 0.00 0.66 0.66 85
20260506040316 12 4 0.0 0.0 0.00 0.66 0.66 85
20260506035836 13 4 0.0 0.0 0.00 0.66 0.66 84
20260506035315 13 4 0.0 0.0 0.00 0.66 0.66 84
20260506034815 13 4 0.0 0.0 0.00 0.66 0.66 84
20260506034315 12 4 0.0 0.0 0.00 0.66 0.66 85
20260506033822 13 19 0.0 0.0 0.00 0.66 0.66 86
20260506033320 13 32 0.0 0.0 0.00 0.66 0.66 87
20260506032821 13 32 0.0 0.0 0.00 0.66 0.66 87
20260506032320 13 21 0.0 0.0 0.00 0.66 0.66 88
20260506031839 13 21 0.0 0.0 0.00 0.66 0.66 88
20260506031337 13 21 0.0 0.0 0.00 0.66 0.66 89
20260506030816 13 259 0.0 0.0 0.00 0.66 0.66 88
20260506030316 13 259 0.0 0.0 0.00 0.66 0.66 89
20260506025817 13 259 0.0 0.0 0.00 0.66 0.66 89
20260506025316 13 259 0.0 0.0 0.00 0.66 0.66 89
20260506024835 13 280 0.0 0.0 0.00 0.66 0.66 89
20260506024314 13 281 0.0 0.0 0.00 0.66 0.66 89
20260506023832 13 282 0.0 0.0 0.00 0.66 0.66 89
20260506023353 13 237 0.0 0.0 0.00 0.66 0.66 89
20260506022833 14 237 0.0 0.0 0.00 0.66 0.66 90
20260506022332 14 332 0.0 0.0 0.00 0.66 0.66 90
20260506021831 14 339 0.0 9.7 0.00 0.66 0.66 90
20260506021332 14 330 1.6 16.1 0.00 0.66 0.66 91
20260506020852 14 327 4.8 16.1 0.00 0.66 0.66 92
20260506020323 15 262 1.6 6.4 0.00 0.66 0.66 92
20260506015844 15 311 0.0 0.0 0.00 0.66 0.66 93
20260506015322 15 315 0.0 0.0 0.00 0.66 0.66 93
20260506014842 15 315 0.0 0.0 0.00 0.66 0.66 93
20260506014320 15 315 0.0 0.0 0.00 0.66 0.66 93
20260506013340 15 315 0.0 0.0 0.00 0.66 0.66 92
20260506012817 15 315 0.0 0.0 0.00 0.66 0.66 92
20260506012316 15 315 0.0 0.0 0.00 0.66 0.66 92
20260506011835 15 316 0.0 0.0 0.00 0.66 0.66 92
20260506011332 15 327 0.0 0.0 0.00 0.66 0.66 92
20260506010831 15 328 0.0 0.0 0.00 0.66 0.66 92
20260506010347 15 328 0.0 0.0 0.00 0.66 0.66 92
20260506005826 15 335 0.0 0.0 0.00 0.66 0.66 92
20260506005327 15 337 0.0 0.0 0.00 0.66 0.66 91
20260506004826 15 337 0.0 0.0 0.00 0.66 0.66 91
20260506004345 16 339 0.0 0.0 0.00 0.66 0.66 91
20260506003824 16 339 0.0 0.0 0.03 0.66 0.66 91
20260506003325 16 339 0.0 0.0 0.03 0.66 0.66 91
20260506002844 16 339 0.0 0.0 0.03 0.66 0.66 91
20260506002345 16 339 0.0 0.0 0.03 0.66 0.66 90
20260506001846 16 339 0.0 0.0 0.03 0.66 0.66 90
20260506001323 16 339 0.0 0.0 0.05 0.66 0.66 89
20260506000824 16 339 0.0 0.0 0.05 0.66 0.66 89
20260506000324 16 339 0.0 0.0 0.05 0.66 0.66 89
20260505235824 16 338 0.0 0.0 0.08 0.66 0.66 88
20260505235344 16 338 0.0 0.0 0.08 0.66 0.66 88
20260505234823 16 339 0.0 0.0 0.08 0.66 0.66 87
20260505234342 16 339 0.0 0.0 0.08 0.66 0.66 87
20260505233842 16 339 0.0 0.0 0.05 0.64 0.64 86
20260505233320 16 299 0.0 0.0 0.05 0.64 0.64 85
20260505232820 16 298 0.0 0.0 0.05 0.64 0.64 85
20260505232318 17 291 0.0 0.0 0.05 0.64 0.64 84
20260505231818 17 290 0.0 0.0 0.03 0.61 0.61 83
20260505231338 17 290 0.0 0.0 0.03 0.61 0.61 83
20260505230817 17 289 0.0 0.0 0.03 0.61 0.61 82
20260505230316 17 289 0.0 0.0 0.03 0.61 0.61 82
20260505225817 17 285 0.0 0.0 0.00 0.58 0.58 81
20260505225337 17 285 0.0 0.0 0.00 0.58 0.58 82
20260505224814 17 285 0.0 0.0 0.00 0.58 0.58 82
20260505224314 17 149 0.0 0.0 0.00 0.58 0.58 82
20260505223814 17 135 0.0 0.0 0.00 0.58 0.58 82
20260505223334 17 140 0.0 0.0 0.00 0.58 0.58 82
20260505222833 17 144 0.0 4.8 0.00 0.58 0.58 81
20260505222332 17 242 0.0 4.8 0.00 0.58 0.58 82
20260505221853 17 70 0.0 1.6 0.00 0.58 0.58 84
20260505221331 17 70 0.0 6.4 0.00 0.58 0.58 84
20260505220831 17 70 1.6 6.4 0.00 0.58 0.58 84
20260505220333 17 8 0.0 0.0 0.00 0.58 0.58 85
20260505215813 17 4 0.0 0.0 0.00 0.58 0.58 86
20260505215314 17 4 0.0 1.6 0.05 0.58 0.58 86
20260505214835 16 63 0.0 4.8 0.05 0.58 0.58 86
20260505214354 16 64 1.6 6.4 0.05 0.58 0.58 85
20260505213850 16 120 1.6 8.0 0.08 0.58 0.58 85
20260505213329 16 113 0.0 1.6 0.10 0.58 0.58 85
20260505212828 16 112 0.0 3.2 0.25 0.58 0.58 85
20260505212349 16 112 1.6 6.4 0.30 0.58 0.58 84
20260505211825 16 121 0.0 11.3 0.33 0.58 0.58 83
20260505211325 16 73 3.2 11.3 0.36 0.58 0.58 83
20260505210847 16 141 3.2 8.0 0.36 0.58 0.58 82
20260505210326 16 156 1.6 6.4 0.36 0.58 0.58 81
20260505205846 17 127 0.0 11.3 0.33 0.56 0.56 79
20260505205324 17 226 3.2 11.3 0.30 0.53 0.53 78
20260505204825 17 126 4.8 24.1 0.30 0.53 0.53 75
20260505204324 18 324 6.4 24.1 0.30 0.53 0.53 72
20260505203845 18 270 12.9 30.6 0.28 0.51 0.51 67
20260505203323 20 295 12.9 30.6 0.25 0.48 0.48 58
20260505202822 22 132 12.9 25.7 0.08 0.30 0.30 53
20260505202321 23 35 8.0 20.9 0.05 0.28 0.28 49
20260505201820 24 219 9.7 20.9 0.03 0.25 0.25 42
20260505201320 25 120 6.4 29.0 0.00 0.23 0.23 38
20260505200820 25 236 9.7 29.0 0.00 0.23 0.23 37
20260505200320 25 181 6.4 24.1 0.00 0.23 0.23 37
20260505195820 25 171 3.2 19.3 0.00 0.23 0.23 38
20260505195319 25 268 3.2 19.3 0.00 0.23 0.23 40
20260505194839 25 121 1.6 9.7 0.00 0.23 0.23 41
20260505194318 25 149 0.0 6.4 0.00 0.23 0.23 43
20260505193837 25 170 0.0 6.4 0.00 0.23 0.23 43
20260505193315 24 299 0.0 12.9 0.00 0.23 0.23 43